Branson, MO

2:45 AM CDT on July 27, 2017 (GMT -0500)
Branson

Weather History for KBBG - December, 2012

Change the Weather History Date:

Wednesday, December 19, 2012

  Actual Average (KHRO) Record (KHRO)
Temperature  
Mean Temperature 49 °F -  
Max Temperature 59 °F 49 °F 77 °F (1941)
Min Temperature 39 °F 29 °F 0 °F (1945)
Degree Days  
Heating Degree Days 16    
Moisture  
Dew Point 44 °F    
Average Humidity 80    
Maximum Humidity 100    
Minimum Humidity 61    
Precipitation  
Precipitation 0.28 in - - ()
Sea Level Pressure  
Sea Level Pressure 29.72 in    
Wind  
Wind Speed 6 mph (SE)    
Max Wind Speed 15 mph    
Max Gust Speed 25 mph    
Visibility 9 miles    
Events Rain , Thunderstorm    
Averages and records for this station are not official NWS values.
T = Trace of Precipitation, MM = Missing Value Source: NWS Daily Summary

Daily Weather History Graph

Daily Weather History Graph

Search for Another Location

Airport or City:

Trip Planner

Search our weather history database for the weather conditions in past years. The results will help you decide how hot, cold, wet, or windy it might be!

Date:

Astronomy

Dec. 19, 2012 Rise Set
Actual Time 7:20 AM CST 5:00 PM CST
Civil Twilight 6:51 AM CST 5:29 PM CST
Nautical Twilight 6:19 AM CST 6:01 PM CST
Astronomical Twilight 5:47 AM CST 6:32 PM CST
Moon 11:40 AM CST (12/19) No Moon Set
Length of Visible Light 10h 37m
Length of Day
9h 39m
Waxing Crescent, 45% of the Moon is Illuminated
Dec 19
Waxing Crescent
Dec 19
First Quarter
Dec 28
Full
Jan 4
Last Quarter
Jan 11
New

Hourly Weather History & Observations

Time (CST) Temp. Windchill Dew Point Humidity Pressure Visibility Wind Dir Wind Speed Gust Speed Precip Events Conditions
12:15 AM 42.8 °F - 32.0 °F 66% 29.87 in 10.0 mi Calm Calm - N/A   Clear
12:35 AM 44.6 °F - 32.0 °F 61% 29.87 in 10.0 mi Calm Calm - N/A   Clear
12:55 AM 39.2 °F - 32.0 °F 75% 29.87 in 10.0 mi Calm Calm - N/A   Clear
1:15 AM 41.0 °F - 32.0 °F 70% 29.86 in 10.0 mi Calm Calm - N/A   Clear
1:35 AM 41.0 °F - 32.0 °F 70% 29.86 in 10.0 mi Calm Calm - N/A   Clear
1:55 AM 41.0 °F - 32.0 °F 70% 29.87 in 10.0 mi Calm Calm - N/A   Clear
2:15 AM 41.0 °F 39.0 °F 33.8 °F 76% 29.86 in 10.0 mi ESE 3.5 mph - N/A   Clear
2:35 AM 41.0 °F 37.1 °F 33.8 °F 76% 29.86 in 10.0 mi ESE 5.8 mph - N/A   Clear
2:55 AM 44.6 °F 40.2 °F 33.8 °F 66% 29.86 in 10.0 mi ESE 8.1 mph - N/A   Clear
3:15 AM 42.8 °F 39.3 °F 33.8 °F 70% 29.86 in 10.0 mi ESE 5.8 mph - N/A   Clear
3:35 AM 42.8 °F 40.1 °F 33.8 °F 70% 29.86 in 10.0 mi East 4.6 mph - N/A   Clear
3:55 AM 44.6 °F 40.7 °F 33.8 °F 66% 29.86 in 10.0 mi East 6.9 mph - N/A   Partly Cloudy
4:15 AM 44.6 °F 39.7 °F 33.8 °F 66% 29.85 in 10.0 mi East 9.2 mph - N/A   Mostly Cloudy
4:35 AM 44.6 °F 38.1 °F 33.8 °F 66% 29.84 in 10.0 mi East 13.8 mph - N/A   Scattered Clouds
4:55 AM 44.6 °F 40.7 °F 32.0 °F 61% 29.85 in 10.0 mi East 6.9 mph - N/A   Partly Cloudy
5:15 AM 41.0 °F 34.7 °F 32.0 °F 70% 29.85 in 10.0 mi ESE 10.4 mph - N/A   Clear
5:35 AM 41.0 °F 34.3 °F 32.0 °F 70% 29.84 in 10.0 mi ESE 11.5 mph - N/A   Clear
6:45 AM 41.0 °F 33.1 °F 33.8 °F 76% 29.82 in 10.0 mi ESE 15.0 mph 20.7 mph N/A   Mostly Cloudy
7:58 AM 41.0 °F 34.3 °F 35.6 °F 81% 29.82 in 10.0 mi ESE 11.5 mph 18.4 mph N/A   Mostly Cloudy
8:45 AM 42.8 °F 36.2 °F 35.6 °F 76% 29.83 in 10.0 mi ESE 12.7 mph 19.6 mph N/A   Mostly Cloudy
9:51 AM 46.4 °F 40.7 °F 39.2 °F 76% 29.82 in 10.0 mi ESE 12.7 mph - N/A   Mostly Cloudy
10:50 AM 50.0 °F - 39.2 °F 66% 29.79 in 10.0 mi ESE 9.2 mph - N/A   Overcast
11:55 AM 53.6 °F - 44.6 °F 72% 29.75 in 10.0 mi SE 12.7 mph - N/A   Overcast
12:50 PM 55.4 °F - 44.6 °F 67% 29.72 in 10.0 mi SE 11.5 mph - N/A   Overcast
1:47 PM 57.2 °F - 46.4 °F 67% 29.70 in 10.0 mi ESE 11.5 mph - N/A   Overcast
2:50 PM 59.0 °F - 51.8 °F 77% 29.68 in 10.0 mi SSE 12.7 mph - N/A   Overcast
3:45 PM 59.0 °F - 53.6 °F 82% 29.68 in 10.0 mi South 5.8 mph 21.9 mph N/A   Overcast
4:50 PM 57.2 °F - 55.4 °F 94% 29.65 in 10.0 mi SSE 11.5 mph 17.3 mph N/A   Overcast
5:50 PM 57.2 °F - 55.4 °F 94% 29.64 in 10.0 mi SE 13.8 mph - N/A   Overcast
6:45 PM 57.2 °F - 55.4 °F 94% 29.62 in 10.0 mi SE 12.7 mph - N/A   Overcast
7:45 PM 57.2 °F - 55.4 °F 94% 29.59 in 10.0 mi SE 10.4 mph - N/A   Overcast
8:15 PM 57.2 °F - 55.4 °F 94% 29.58 in 8.0 mi SE 8.1 mph - N/A   Partly Cloudy
8:35 PM 59.0 °F - 57.2 °F 94% 29.57 in 9.0 mi SSE 6.9 mph - N/A   Mostly Cloudy
8:45 PM 59.0 °F - 57.2 °F 94% 29.57 in 10.0 mi SSE 8.1 mph - N/A   Overcast
8:55 PM 59.0 °F - 57.2 °F 94% 29.56 in 10.0 mi SE 8.1 mph - N/A   Overcast
9:15 PM 59.0 °F - 57.2 °F 94% 29.54 in 10.0 mi SE 12.7 mph - N/A   Overcast
9:35 PM 59.0 °F - 57.2 °F 94% 29.52 in 10.0 mi SE 11.5 mph - N/A   Overcast
9:55 PM 59.0 °F - 57.2 °F 94% 29.51 in 10.0 mi SE 12.7 mph - N/A   Overcast
10:15 PM 59.0 °F - 57.2 °F 94% 29.49 in 9.0 mi SE 12.7 mph - N/A Rain Light Rain
10:35 PM 59.0 °F - 59.0 °F 100% 29.49 in 2.5 mi SE 10.4 mph - 0.04 in Rain , Thunderstorm Rain
10:55 PM 59.0 °F - 59.0 °F 100% 29.54 in 1.2 mi WSW 15.0 mph 25.3 mph 0.17 in Rain , Thunderstorm Rain
11:15 PM 55.4 °F - 53.6 °F 94% 29.53 in 3.0 mi SSW 10.4 mph 23.0 mph 0.03 in Rain , Thunderstorm Light Rain
11:35 PM 55.4 °F - 53.6 °F 94% 29.50 in 3.0 mi SSW 6.9 mph - 0.09 in Rain Rain
11:55 PM 55.4 °F - 53.6 °F 94% 29.46 in 4.0 mi South 8.1 mph - 0.11 in Rain Light Rain